Location: Campillo
(40.8621°N, 4.2488°W)
Time: 15:54:37
(UTC+00:00)

Cosmos 1777 Rocket - Pass Details

Date: 03 October 2021
Orbit: 759 x 775 km, 74.0° (Epoch: 23 October)

Event Time Altitude Azimuth Distance (km) Brightness Sun altitude
Rises 03:42:23 0° 344° (NNW) 3,226 7.3 -29.2°
Reaches altitude 10° 03:44:49 10° 349° (NNW) 2,297 6.6 -28.8°
Maximum altitude 03:49:56 57° 67° (ENE) 895 4.5 -27.9°
Drops below altitude 10° 03:55:02 10° 147° (SSE) 2,287 6.6 -27.0°
Sets 03:57:26 0° 151° (SSE) 3,210 7.3 -26.6°
